VK3ANZ Weather Reports


time (UTC)temp
C
wind
direction
speed
KPH
gust
KPH
rain 1hr
cm
rain 24hr
cm
rain mn
cm
humidity
%
barometer
mb
20260510220527 8 0.0 0.0 0.00 0.00 0.00 87 1034.7
20260510215520 8 0.0 0.0 0.00 0.00 0.00 87 1034.6
20260510214541 8 0.0 0.0 0.00 0.00 0.00 86 1034.4
20260510213547 8 6 0.0 3.2 0.00 0.00 0.00 86 1034.3
20260510212528 8 0.0 0.0 0.00 0.00 0.00 85 1034.1
20260510211522 8 0.0 0.0 0.00 0.00 0.00 85 1034.1
20260510210547 8 0.0 0.0 0.00 0.00 0.00 85 1034.0
20260510205520 8 0.0 0.0 0.00 0.00 0.00 85 1033.9
20260510204527 8 0.0 0.0 0.00 0.00 0.00 85 1033.8
20260510203600 8 0.0 0.0 0.00 0.00 0.00 86 1033.8
20260510202528 8 0.0 0.0 0.00 0.00 0.00 86 1033.6
20260510201519 8 0.0 0.0 0.00 0.00 0.00 86 1033.6
20260510200527 8 0.0 0.0 0.00 0.00 0.00 86 1033.4
20260510195520 7 0.0 0.0 0.00 0.00 0.00 86 1033.4
20260510194527 7 0.0 0.0 0.00 0.00 0.00 86 1033.3
20260510193524 7 0.0 0.0 0.00 0.00 0.00 86 1033.2
20260510192528 7 0.0 0.0 0.00 0.00 0.00 86 1033.2
20260510191540 7 0.0 0.0 0.00 0.00 0.00 86 1033.1
20260510185523 7 0.0 0.0 0.00 0.00 0.00 87 1032.9
20260510184607 7 0.0 0.0 0.00 0.00 0.00 87 1032.8
20260510183539 7 0.0 0.0 0.00 0.00 0.00 87 1032.7
20260510182547 6 0.0 0.0 0.00 0.00 0.00 87 1032.7
20260510181519 6 0.0 0.0 0.00 0.00 0.00 86 1032.6
20260510180540 6 0.0 0.0 0.00 0.00 0.00 86 1032.5
20260510175521 6 0.0 0.0 0.00 0.00 0.00 87 1032.4
20260510174548 6 0.0 0.0 0.00 0.00 0.00 87 1032.4
20260510173520 6 0.0 0.0 0.00 0.00 0.00 87 1032.3
20260510172528 6 0.0 0.0 0.00 0.00 0.00 87 1032.4
20260510171519 6 0.0 0.0 0.00 0.00 0.00 87 1032.2
20260510170538 6 0.0 0.0 0.00 0.00 0.00 87 1032.4
20260510165520 6 0.0 0.0 0.00 0.00 0.00 87 1032.3
20260510164526 6 0.0 0.0 0.00 0.00 0.00 87 1032.4
20260510163527 6 0.0 0.0 0.00 0.00 0.00 87 1032.4
20260510162528 6 0.0 0.0 0.00 0.00 0.00 87 1032.4
20260510161611 6 0.0 0.0 0.00 0.00 0.00 87 1032.6
20260510160526 6 0.0 0.0 0.00 0.00 0.00 87 1032.5
20260510155519 6 0.0 0.0 0.00 0.00 0.00 86 1032.5
20260510154539 6 0.0 0.0 0.00 0.00 0.00 87 1032.6
20260510153519 6 0.0 0.0 0.00 0.00 0.00 87 1032.5
20260510152527 6 0.0 0.0 0.00 0.00 0.00 86 1032.5
20260510151519 6 0.0 0.0 0.00 0.00 0.00 86 1032.4
20260510150610 6 0.0 0.0 0.00 0.00 0.00 86 1032.4
20260510145529 6 0.0 0.0 0.00 0.00 0.00 86 1032.5
20260510144527 6 0.0 0.0 0.00 0.00 0.00 86 1032.5
20260510143519 6 0.0 0.0 0.00 0.00 0.00 86 1032.4
20260510142526 6 0.0 0.0 0.00 0.00 0.00 86 1032.5
20260510141519 6 0.0 0.0 0.00 0.00 0.00 86 1032.5
20260510140548 7 0.0 0.0 0.00 0.00 0.00 85 1032.5
20260510135524 7 0.0 0.0 0.00 0.00 0.00 84 1032.5
20260510134521 7 0.0 0.0 0.00 0.00 0.00 84 1032.4
20260510133518 7 0.0 0.0 0.00 0.00 0.00 85 1032.5
20260510132526 7 0.0 0.0 0.00 0.00 0.00 84 1032.5
20260510131520 7 0.0 0.0 0.00 0.00 0.00 84 1032.5
20260510130522 7 0.0 0.0 0.00 0.00 0.00 83 1032.5
20260510125520 7 0.0 0.0 0.00 0.00 0.00 82 1032.6
20260510124526 7 0.0 0.0 0.00 0.00 0.00 83 1032.6
20260510123640 7 0.0 0.0 0.00 0.00 0.00 83 1032.6
20260510122607 7 0.0 0.0 0.00 0.00 0.00 83 1032.6
20260510121517 7 0.0 0.0 0.00 0.00 0.00 83 1032.6
20260510120523 8 0.0 0.0 0.00 0.00 0.00 82 1032.7
20260510115519 8 0.0 0.0 0.00 0.00 0.00 83 1032.6
20260510114541 8 0.0 0.0 0.00 0.00 0.00 83 1032.5
20260510113518 8 0.0 0.0 0.00 0.00 0.00 83 1032.4
20260510112526 8 0.0 0.0 0.00 0.00 0.00 83 1032.4
20260510111518 8 0.0 0.0 0.00 0.00 0.00 83 1032.2
20260510110527 8 0.0 0.0 0.00 0.00 0.00 82 1032.2
20260510105530 8 0.0 0.0 0.00 0.00 0.00 82 1032.1
20260510104516 8 0.0 0.0 0.00 0.00 0.00 81 1032.1
20260510103518 8 0.0 0.0 0.00 0.00 0.00 81 1032.0
20260510102546 8 0.0 0.0 0.00 0.00 0.00 81 1032.1
20260510101521 9 0.0 0.0 0.00 0.00 0.00 77 1032.1
20260510100525 9 0.0 0.0 0.00 0.00 0.00 75 1032.0
20260510095639 9 0.0 0.0 0.00 0.00 0.00 74 1032.1
20260510094526 9 0.0 0.0 0.00 0.00 0.00 73 1032.0
20260510093518 9 0.0 0.0 0.00 0.00 0.00 69 1031.9
20260510092526 9 0.0 0.0 0.00 0.00 0.00 58 1031.6
20260510091524 10 0.0 0.0 0.00 0.00 0.00 52 1031.8
20260510090526 10 0.0 0.0 0.00 0.00 0.00 50 1031.7
20260510085518 10 0.0 0.0 0.00 0.00 0.00 46 1031.7
20260510084525 10 0.0 0.0 0.00 0.00 0.00 45 1031.5
20260510083540 10 0.0 0.0 0.00 0.00 0.00 43 1031.4
20260510082527 11 0.0 0.0 0.00 0.00 0.00 40 1031.3
20260510081517 11 0.0 0.0 0.00 0.00 0.00 40 1031.4
20260510080525 11 0.0 0.0 0.00 0.00 0.00 36 1031.2
20260510075518 12 0.0 0.0 0.00 0.00 0.00 34 1031.1
20260510074525 12 0.0 0.0 0.00 0.00 0.00 32 1031.0
20260510073528 13 0.0 0.0 0.00 0.00 0.00 31 1031.0
20260510072525 13 0.0 0.0 0.00 0.00 0.00 31 1030.9
20260510071518 14 0.0 0.0 0.00 0.00 0.00 30 1030.8
20260510070541 15 0.0 0.0 0.00 0.00 0.00 28 1030.8
20260510065518 15 141 0.0 3.2 0.00 0.00 0.00 27 1030.7
20260510064605 15 0.0 0.0 0.00 0.00 0.00 26 1030.7
20260510063518 16 0.0 0.0 0.00 0.00 0.00 25 1030.7
20260510062531 16 0.0 0.0 0.00 0.00 0.00 23 1030.6
20260510061527 16 0.0 0.0 0.00 0.00 0.00 22 1030.6
20260510060525 16 0.0 0.0 0.00 0.00 0.00 22 1030.6
20260510055517 16 0.0 0.0 0.00 0.00 0.00 23 1030.6
20260510054525 16 0.0 0.0 0.00 0.00 0.00 23 1030.5
20260510053517 16 0.0 0.0 0.00 0.00 0.00 23 1030.5
20260510052525 17 0.0 0.0 0.00 0.00 0.00 23 1030.4
20260510051543 17 183 0.0 11.3 0.00 0.00 0.00 22 1030.6
20260510050525 17 154 0.0 16.1 0.00 0.00 0.00 22 1030.4
20260510045517 17 8 1.6 11.3 0.00 0.00 0.00 22 1030.4
20260510044525 17 229 0.0 3.2 0.00 0.00 0.00 21 1030.6
20260510043517 16 247 3.2 11.3 0.00 0.00 0.00 22 1030.5
20260510042517 16 0.0 0.0 0.00 0.00 0.00 21 1030.5
20260510041518 16 341 0.0 3.2 0.00 0.00 0.00 22 1030.7
20260510040525 15 151 0.0 3.2 0.00 0.00 0.00 25 1030.6
20260510035517 15 172 1.6 8.0 0.00 0.00 0.00 25 1030.8
20260510034545 15 0.0 0.0 0.00 0.00 0.00 25 1030.7
20260510033517 15 0.0 0.0 0.00 0.00 0.00 27 1030.9
20260510032545 15 101 1.6 8.0 0.00 0.00 0.00 28 1030.6
20260510031526 15 161 0.0 8.0 0.00 0.00 0.00 28 1030.9
20260510030526 15 0.0 0.0 0.00 0.00 0.00 29 1031.0
20260510025537 15 194 0.0 3.2 0.00 0.00 0.00 30 1031.0
20260510024525 15 149 1.6 8.0 0.00 0.00 0.00 30 1031.2
20260510023517 15 0.0 0.0 0.00 0.00 0.00 29 1031.3
20260510022545 15 164 0.0 8.0 0.00 0.00 0.00 30 1031.5
20260510021516 15 0.0 0.0 0.00 0.00 0.00 30 1031.5
20260510020525 15 0.0 0.0 0.00 0.00 0.00 30 1031.6
20260510015517 15 174 1.6 8.0 0.00 0.00 0.00 30 1031.9
20260510014525 15 0.0 0.0 0.00 0.00 0.00 30 1031.9
20260510013517 15 133 1.6 11.3 0.00 0.00 0.00 30 1032.0
20260510012517 15 0.0 0.0 0.00 0.00 0.00 30 1032.1
20260510011516 15 101 0.0 3.2 0.00 0.00 0.00 31 1032.1
20260510010525 15 188 1.6 8.0 0.00 0.00 0.00 31 1032.1
20260510005537 15 0.0 0.0 0.00 0.00 0.00 31 1032.1
20260510004524 15 126 0.0 3.2 0.00 0.00 0.00 31 1032.0
20260510003516 14 0.0 0.0 0.00 0.00 0.00 31 1032.1
20260510002544 14 0.0 0.0 0.00 0.00 0.00 32 1032.1
20260510001517 14 270 0.0 3.2 0.00 0.00 0.00 32 1032.1
20260510000525 14 169 1.6 8.0 0.00 0.00 0.00 33 1032.1
20260509235516 14 0.0 0.0 0.00 0.00 0.00 33 1032.0
20260509234525 13 126 0.0 11.3 0.00 0.00 0.00 35 1032.1
20260509233517 13 0.0 0.0 0.00 0.00 0.00 37 1032.0
20260509232526 13 0.0 0.0 0.00 0.00 0.00 40 1032.0
20260509231536 13 0.0 0.0 0.00 0.00 0.00 42 1032.0
20260509230524 13 0.0 0.0 0.00 0.00 0.00 45 1032.0
20260509225517 13 0.0 0.0 0.00 0.00 0.00 49 1031.9
20260509224525 12 0.0 0.0 0.00 0.00 0.00 52 1031.8
20260509223537 12 0.0 0.0 0.00 0.00 0.00 53 1031.8
20260509221516 12 0.0 0.0 0.00 0.00 0.00 59 1031.6